Year,Month,Day,Hour,Minute,Value (Times are PST for temperature in C)
2014,08,05,00,00,18.70
2014,08,05,00,01,18.70
2014,08,05,00,02,18.70
2014,08,05,00,03,18.80
2014,08,05,00,04,18.80
2014,08,05,00,05,18.80
2014,08,05,00,06,18.80
2014,08,05,00,07,18.70
2014,08,05,00,08,18.70
2014,08,05,00,09,18.70
2014,08,05,00,10,18.70
2014,08,05,00,11,18.60
2014,08,05,00,12,18.60
2014,08,05,00,13,18.60
2014,08,05,00,14,18.60
2014,08,05,00,15,18.60
2014,08,05,00,16,18.60
2014,08,05,00,17,18.50
2014,08,05,00,18,18.50
2014,08,05,00,19,18.50
2014,08,05,00,20,18.50
2014,08,05,00,21,18.40
2014,08,05,00,22,18.40
2014,08,05,00,23,18.40
2014,08,05,00,24,18.40
2014,08,05,00,25,18.40
2014,08,05,00,26,18.40
2014,08,05,00,27,18.40
2014,08,05,00,28,18.30
2014,08,05,00,29,18.30
2014,08,05,00,30,18.30
2014,08,05,00,31,18.30
2014,08,05,00,32,18.30
2014,08,05,00,33,18.40
2014,08,05,00,34,18.40
2014,08,05,00,35,18.30
2014,08,05,00,36,18.30
2014,08,05,00,37,18.30
2014,08,05,00,38,18.30
2014,08,05,00,39,18.30
2014,08,05,00,40,18.30
2014,08,05,00,41,18.30
2014,08,05,00,42,18.30
2014,08,05,00,43,18.30
2014,08,05,00,44,18.30
2014,08,05,00,45,18.30
2014,08,05,00,46,18.30
2014,08,05,00,47,18.30
2014,08,05,00,48,18.30
2014,08,05,00,49,18.30
2014,08,05,00,50,18.30
2014,08,05,00,51,18.30
2014,08,05,00,52,18.30
2014,08,05,00,53,18.30
2014,08,05,00,54,18.30
2014,08,05,00,55,18.20
2014,08,05,00,56,18.20
2014,08,05,00,57,18.20
2014,08,05,00,58,18.20
2014,08,05,00,59,18.20
2014,08,05,01,00,18.20
2014,08,05,01,01,18.10
2014,08,05,01,02,18.10
2014,08,05,01,03,18.00
2014,08,05,01,04,18.00
2014,08,05,01,05,18.00
2014,08,05,01,06,17.90
2014,08,05,01,07,17.90
2014,08,05,01,08,17.90
2014,08,05,01,09,17.90
2014,08,05,01,10,17.90
2014,08,05,01,11,17.90
2014,08,05,01,12,17.90
2014,08,05,01,13,17.90
2014,08,05,01,14,17.90
2014,08,05,01,15,17.90
2014,08,05,01,16,17.90
2014,08,05,01,17,17.90
2014,08,05,01,18,17.90
2014,08,05,01,19,17.90
2014,08,05,01,20,17.90
2014,08,05,01,21,18.00
2014,08,05,01,22,17.90
2014,08,05,01,23,17.90
2014,08,05,01,24,18.00
2014,08,05,01,25,18.00
2014,08,05,01,26,17.90
2014,08,05,01,27,17.90
2014,08,05,01,28,17.90
2014,08,05,01,29,17.90
2014,08,05,01,30,17.90
2014,08,05,01,31,17.90
2014,08,05,01,32,17.90
2014,08,05,01,33,17.90
2014,08,05,01,34,17.90
2014,08,05,01,35,17.90
2014,08,05,01,36,17.90
2014,08,05,01,37,17.80
2014,08,05,01,38,17.80
2014,08,05,01,39,17.80
2014,08,05,01,40,17.80
2014,08,05,01,41,17.80
2014,08,05,01,42,17.80
2014,08,05,01,43,17.70
2014,08,05,01,44,17.70
2014,08,05,01,45,17.70
2014,08,05,01,46,17.70
2014,08,05,01,47,17.70
2014,08,05,01,48,17.60
2014,08,05,01,49,17.60
2014,08,05,01,50,17.50
2014,08,05,01,51,17.50
2014,08,05,01,52,17.40
2014,08,05,01,53,17.40
2014,08,05,01,54,17.40
2014,08,05,01,55,17.30
2014,08,05,01,56,17.30
2014,08,05,01,57,17.30
2014,08,05,01,58,17.30
2014,08,05,01,59,17.20
2014,08,05,02,00,17.20
2014,08,05,02,01,17.20
2014,08,05,02,02,17.20
2014,08,05,02,03,17.20
2014,08,05,02,04,17.10
2014,08,05,02,05,17.10
2014,08,05,02,06,17.10
2014,08,05,02,07,17.10
2014,08,05,02,08,17.00
2014,08,05,02,09,17.10
2014,08,05,02,10,17.10
2014,08,05,02,11,17.10
2014,08,05,02,12,17.10
2014,08,05,02,13,17.10
2014,08,05,02,14,17.10
2014,08,05,02,15,17.00
2014,08,05,02,16,17.00
2014,08,05,02,17,17.00
2014,08,05,02,18,17.00
2014,08,05,02,19,17.10
2014,08,05,02,20,17.10
2014,08,05,02,21,17.10
2014,08,05,02,22,17.10
2014,08,05,02,23,17.10
2014,08,05,02,24,17.10
2014,08,05,02,25,17.10
2014,08,05,02,26,17.10
2014,08,05,02,27,17.10
2014,08,05,02,28,17.10
2014,08,05,02,29,17.10
2014,08,05,02,30,17.00
2014,08,05,02,31,17.00
2014,08,05,02,32,17.00
2014,08,05,02,33,17.00
2014,08,05,02,34,16.90
2014,08,05,02,35,16.90
2014,08,05,02,36,16.80
2014,08,05,02,37,16.80
2014,08,05,02,38,16.80
2014,08,05,02,39,16.70
2014,08,05,02,40,16.70
2014,08,05,02,41,16.60
2014,08,05,02,42,16.60
2014,08,05,02,43,16.60
2014,08,05,02,44,16.50
2014,08,05,02,45,16.50
2014,08,05,02,46,16.40
2014,08,05,02,47,16.40
2014,08,05,02,48,16.40
2014,08,05,02,49,16.30
2014,08,05,02,50,16.30
2014,08,05,02,51,16.30
2014,08,05,02,52,16.30
2014,08,05,02,53,16.20
2014,08,05,02,54,16.20
2014,08,05,02,55,16.20
2014,08,05,02,56,16.20
2014,08,05,02,57,16.20
2014,08,05,02,58,16.10
2014,08,05,02,59,16.10
2014,08,05,03,00,16.10
2014,08,05,03,01,16.10
2014,08,05,03,02,16.10
2014,08,05,03,03,16.10
2014,08,05,03,04,16.10
2014,08,05,03,05,16.10
2014,08,05,03,06,16.10
2014,08,05,03,07,16.10
2014,08,05,03,08,16.10
2014,08,05,03,09,16.10
2014,08,05,03,10,16.10
2014,08,05,03,11,16.10
2014,08,05,03,12,16.10
2014,08,05,03,13,16.10
2014,08,05,03,14,16.10
2014,08,05,03,15,16.10
2014,08,05,03,16,16.10
2014,08,05,03,17,16.10
2014,08,05,03,18,16.10
2014,08,05,03,19,16.10
2014,08,05,03,20,16.00
2014,08,05,03,21,16.00
2014,08,05,03,22,16.00
2014,08,05,03,23,15.90
2014,08,05,03,24,15.90
2014,08,05,03,25,15.90
2014,08,05,03,26,15.90
2014,08,05,03,27,15.90
2014,08,05,03,28,15.80
2014,08,05,03,29,15.80
2014,08,05,03,30,15.80
2014,08,05,03,31,15.80
2014,08,05,03,32,15.70
2014,08,05,03,33,15.70
2014,08,05,03,34,15.70
2014,08,05,03,35,15.70
2014,08,05,03,36,15.70
2014,08,05,03,37,15.70
2014,08,05,03,38,15.70
2014,08,05,03,39,15.70
2014,08,05,03,40,15.60
2014,08,05,03,41,15.60
2014,08,05,03,42,15.60
2014,08,05,03,43,15.60
2014,08,05,03,44,15.70
2014,08,05,03,45,15.70
2014,08,05,03,46,15.70
2014,08,05,03,47,15.70
2014,08,05,03,48,15.70
2014,08,05,03,49,15.70
2014,08,05,03,50,15.70
2014,08,05,03,51,15.70
2014,08,05,03,52,15.80
2014,08,05,03,53,15.80
2014,08,05,03,54,15.80
2014,08,05,03,55,15.80
2014,08,05,03,56,15.80
2014,08,05,03,57,15.70
2014,08,05,03,58,15.70
2014,08,05,03,59,15.70
2014,08,05,04,00,15.70
2014,08,05,04,01,15.70
2014,08,05,04,02,15.70
2014,08,05,04,03,15.70
2014,08,05,04,04,15.70
2014,08,05,04,05,15.70
2014,08,05,04,06,15.60
2014,08,05,04,07,15.60
2014,08,05,04,08,15.60
2014,08,05,04,09,15.60
2014,08,05,04,10,15.60
2014,08,05,04,11,15.60
2014,08,05,04,12,15.60
2014,08,05,04,13,15.60
2014,08,05,04,14,15.60
2014,08,05,04,15,15.50
2014,08,05,04,16,15.50
2014,08,05,04,17,15.50
2014,08,05,04,18,15.50
2014,08,05,04,19,15.50
2014,08,05,04,20,15.50
2014,08,05,04,21,15.50
2014,08,05,04,22,15.40
2014,08,05,04,23,15.50
2014,08,05,04,24,15.50
2014,08,05,04,25,15.50
2014,08,05,04,26,15.50
2014,08,05,04,27,15.50
2014,08,05,04,28,15.50
2014,08,05,04,29,15.40
2014,08,05,04,30,15.40
2014,08,05,04,31,15.40
2014,08,05,04,32,15.40
2014,08,05,04,33,15.40
2014,08,05,04,34,15.40
2014,08,05,04,35,15.30
2014,08,05,04,36,15.30
2014,08,05,04,37,15.30
2014,08,05,04,38,15.30
2014,08,05,04,39,15.30
2014,08,05,04,40,15.30
2014,08,05,04,41,15.30
2014,08,05,04,42,15.20
2014,08,05,04,43,15.20
2014,08,05,04,44,15.20
2014,08,05,04,45,15.20
2014,08,05,04,46,15.20
2014,08,05,04,47,15.20
2014,08,05,04,48,15.20
2014,08,05,04,49,15.10
2014,08,05,04,50,15.10
2014,08,05,04,51,15.10
2014,08,05,04,52,15.10
2014,08,05,04,53,15.10
2014,08,05,04,54,15.10
2014,08,05,04,55,15.10
2014,08,05,04,56,15.10
2014,08,05,04,57,15.00
2014,08,05,04,58,15.00
2014,08,05,04,59,15.00
2014,08,05,05,00,15.00
2014,08,05,05,01,15.00
2014,08,05,05,02,15.00
2014,08,05,05,03,14.90
2014,08,05,05,04,15.00
2014,08,05,05,05,14.90
2014,08,05,05,06,14.90
2014,08,05,05,07,14.90
2014,08,05,05,08,14.90
2014,08,05,05,09,14.90
2014,08,05,05,10,14.90
2014,08,05,05,11,14.90
2014,08,05,05,12,14.90
2014,08,05,05,13,14.90
2014,08,05,05,14,14.90
2014,08,05,05,15,14.90
2014,08,05,05,16,14.90
2014,08,05,05,17,14.90
2014,08,05,05,18,14.90
2014,08,05,05,19,14.90
2014,08,05,05,20,14.90
2014,08,05,05,21,14.90
2014,08,05,05,22,14.90
2014,08,05,05,23,14.90
2014,08,05,05,24,14.90
2014,08,05,05,25,14.90
2014,08,05,05,26,14.90
2014,08,05,05,27,14.90
2014,08,05,05,28,14.90
2014,08,05,05,29,14.90
2014,08,05,05,30,14.90
2014,08,05,05,31,14.90
2014,08,05,05,32,14.80
2014,08,05,05,33,14.80
2014,08,05,05,34,14.80
2014,08,05,05,35,14.80
2014,08,05,05,36,14.80
2014,08,05,05,37,14.80
2014,08,05,05,38,14.80
2014,08,05,05,39,14.80
2014,08,05,05,40,14.80
2014,08,05,05,41,14.80
2014,08,05,05,42,14.80
2014,08,05,05,43,14.80
2014,08,05,05,44,14.80
2014,08,05,05,45,14.80
2014,08,05,05,46,14.80
2014,08,05,05,47,14.80
2014,08,05,05,48,14.80
2014,08,05,05,49,14.80
2014,08,05,05,50,14.80
2014,08,05,05,51,14.70
2014,08,05,05,52,14.70
2014,08,05,05,53,14.70
2014,08,05,05,54,14.80
2014,08,05,05,55,14.80
2014,08,05,05,56,14.70
2014,08,05,05,57,14.70
2014,08,05,05,58,14.70
2014,08,05,05,59,14.70
2014,08,05,06,00,14.70
2014,08,05,06,01,14.70
2014,08,05,06,02,14.70
2014,08,05,06,03,14.70
2014,08,05,06,04,14.70
2014,08,05,06,05,14.70
2014,08,05,06,06,14.60
2014,08,05,06,07,14.60
2014,08,05,06,08,14.60
2014,08,05,06,09,14.60
2014,08,05,06,10,14.60
2014,08,05,06,11,14.60
2014,08,05,06,12,14.60
2014,08,05,06,13,14.60
2014,08,05,06,14,14.60
2014,08,05,06,15,14.60
2014,08,05,06,16,14.60
2014,08,05,06,17,14.60
2014,08,05,06,18,14.60
2014,08,05,06,19,14.60
2014,08,05,06,20,14.60
2014,08,05,06,21,14.60
2014,08,05,06,22,14.60
2014,08,05,06,23,14.70
2014,08,05,06,24,14.70
2014,08,05,06,25,14.70
2014,08,05,06,26,14.70
2014,08,05,06,27,14.70
2014,08,05,06,28,14.70
2014,08,05,06,29,14.70
2014,08,05,06,30,14.80
2014,08,05,06,31,14.80
2014,08,05,06,32,14.80
2014,08,05,06,33,14.80
2014,08,05,06,34,14.80
2014,08,05,06,35,14.80
2014,08,05,06,36,14.80
2014,08,05,06,37,14.80
2014,08,05,06,38,14.80
2014,08,05,06,39,14.80
2014,08,05,06,40,14.80
2014,08,05,06,41,14.80
2014,08,05,06,42,14.80
2014,08,05,06,43,14.80
2014,08,05,06,44,14.80
2014,08,05,06,45,14.80
2014,08,05,06,46,14.80
2014,08,05,06,47,14.80
2014,08,05,06,48,14.80
2014,08,05,06,49,14.80
2014,08,05,06,50,14.80
2014,08,05,06,51,14.80
2014,08,05,06,52,14.90
2014,08,05,06,53,14.90
2014,08,05,06,54,15.00
2014,08,05,06,55,15.00
2014,08,05,06,56,15.10
2014,08,05,06,57,15.20
2014,08,05,06,58,15.30
2014,08,05,06,59,15.40
2014,08,05,07,00,15.50
2014,08,05,07,01,15.60
2014,08,05,07,02,15.70
2014,08,05,07,03,15.80
2014,08,05,07,04,15.90
2014,08,05,07,05,16.00
2014,08,05,07,06,16.00
2014,08,05,07,07,16.10
2014,08,05,07,08,16.10
2014,08,05,07,09,16.20
2014,08,05,07,10,16.20
2014,08,05,07,11,16.20
2014,08,05,07,12,16.30
2014,08,05,07,13,16.30
2014,08,05,07,14,16.40
2014,08,05,07,15,16.40
2014,08,05,07,16,16.50
2014,08,05,07,17,16.50
2014,08,05,07,18,16.60
2014,08,05,07,19,16.60
2014,08,05,07,20,16.60
2014,08,05,07,21,16.60
2014,08,05,07,22,16.60
2014,08,05,07,23,16.60
2014,08,05,07,24,16.60
2014,08,05,07,25,16.60
2014,08,05,07,26,16.60
2014,08,05,07,27,16.60
2014,08,05,07,28,16.60
2014,08,05,07,29,16.70
2014,08,05,07,30,16.70
2014,08,05,07,31,16.70
2014,08,05,07,32,16.70
2014,08,05,07,33,16.80
2014,08,05,07,34,16.80
2014,08,05,07,35,16.80
2014,08,05,07,36,16.80
2014,08,05,07,37,16.90
2014,08,05,07,38,16.90
2014,08,05,07,39,17.00
2014,08,05,07,40,17.00
2014,08,05,07,41,17.10
2014,08,05,07,42,17.10
2014,08,05,07,43,17.10
2014,08,05,07,44,17.10
2014,08,05,07,45,17.20
2014,08,05,07,46,17.20
2014,08,05,07,47,17.20
2014,08,05,07,48,17.30
2014,08,05,07,49,17.30
2014,08,05,07,50,17.30
2014,08,05,07,51,17.30
2014,08,05,07,52,17.40
2014,08,05,07,53,17.40
2014,08,05,07,54,17.40
2014,08,05,07,55,17.40
2014,08,05,07,56,17.40
2014,08,05,07,57,17.40
2014,08,05,07,58,17.50
2014,08,05,07,59,17.50
2014,08,05,08,00,17.50
2014,08,05,08,01,17.50
2014,08,05,08,02,17.50
2014,08,05,08,03,17.50
2014,08,05,08,04,17.40
2014,08,05,08,05,17.40
2014,08,05,08,06,17.50
2014,08,05,08,07,17.50
2014,08,05,08,08,17.50
2014,08,05,08,09,17.50
2014,08,05,08,10,17.50
2014,08,05,08,11,17.60
2014,08,05,08,12,17.60
2014,08,05,08,13,17.60
2014,08,05,08,14,17.60
2014,08,05,08,15,17.70
2014,08,05,08,16,17.70
2014,08,05,08,17,17.80
2014,08,05,08,18,17.80
2014,08,05,08,19,17.90
2014,08,05,08,20,17.90
2014,08,05,08,21,18.00
2014,08,05,08,22,18.10
2014,08,05,08,23,18.20
2014,08,05,08,24,18.20
2014,08,05,08,25,18.30
2014,08,05,08,26,18.30
2014,08,05,08,27,18.40
2014,08,05,08,28,18.40
2014,08,05,08,29,18.50
2014,08,05,08,30,18.60
2014,08,05,08,31,18.70
2014,08,05,08,32,18.80
2014,08,05,08,33,18.80
2014,08,05,08,34,18.90
2014,08,05,08,35,18.90
2014,08,05,08,36,18.90
2014,08,05,08,37,18.90
2014,08,05,08,38,18.90
2014,08,05,08,39,18.90
2014,08,05,08,40,18.90
2014,08,05,08,41,18.90
2014,08,05,08,42,19.00
2014,08,05,08,43,19.00
2014,08,05,08,44,19.00
2014,08,05,08,45,19.00
2014,08,05,08,46,19.00
2014,08,05,08,47,19.10
2014,08,05,08,48,19.10
2014,08,05,08,49,19.10
2014,08,05,08,50,19.10
2014,08,05,08,51,19.10
2014,08,05,08,52,19.10
2014,08,05,08,53,19.10
2014,08,05,08,54,19.10
2014,08,05,08,55,19.00
2014,08,05,08,56,19.00
2014,08,05,08,57,18.90
2014,08,05,08,58,18.90
2014,08,05,08,59,18.90
2014,08,05,09,00,18.90
2014,08,05,09,01,18.90
2014,08,05,09,02,18.90
2014,08,05,09,03,18.90
2014,08,05,09,04,18.90
2014,08,05,09,05,18.90
2014,08,05,09,06,19.00
2014,08,05,09,07,19.00
2014,08,05,09,08,19.00
2014,08,05,09,09,19.00
2014,08,05,09,10,19.10
2014,08,05,09,11,19.10
2014,08,05,09,12,19.10
2014,08,05,09,13,19.20
2014,08,05,09,14,19.20
2014,08,05,09,15,19.30
2014,08,05,09,16,19.40
2014,08,05,09,17,19.40
2014,08,05,09,18,19.50
2014,08,05,09,19,19.60
2014,08,05,09,20,19.70
2014,08,05,09,21,19.70
2014,08,05,09,22,19.70
2014,08,05,09,23,19.80
2014,08,05,09,24,19.80
2014,08,05,09,25,19.80
2014,08,05,09,26,19.90
2014,08,05,09,27,20.00
2014,08,05,09,28,20.00
2014,08,05,09,29,20.10
2014,08,05,09,30,20.10
2014,08,05,09,31,20.10
2014,08,05,09,32,20.10
2014,08,05,09,33,20.00
2014,08,05,09,34,20.00
2014,08,05,09,35,20.00
2014,08,05,09,36,20.00
2014,08,05,09,37,20.00
2014,08,05,09,38,20.00
2014,08,05,09,39,20.00
2014,08,05,09,40,20.10
2014,08,05,09,41,20.10
2014,08,05,09,42,20.10
2014,08,05,09,43,20.10
2014,08,05,09,44,20.10
2014,08,05,09,45,20.10
2014,08,05,09,46,20.10
2014,08,05,09,47,20.00
2014,08,05,09,48,19.90
2014,08,05,09,49,19.90
2014,08,05,09,50,19.80
2014,08,05,09,51,19.70
2014,08,05,09,52,19.70
2014,08,05,09,53,19.70
2014,08,05,09,54,19.70
2014,08,05,09,55,19.70
2014,08,05,09,56,19.80
2014,08,05,09,57,19.80
2014,08,05,09,58,19.90
2014,08,05,09,59,20.00
2014,08,05,10,00,20.00
2014,08,05,10,01,20.10
2014,08,05,10,02,20.20
2014,08,05,10,03,20.30
2014,08,05,10,04,20.30
2014,08,05,10,05,20.40
2014,08,05,10,06,20.40
2014,08,05,10,07,20.50
2014,08,05,10,08,20.60
2014,08,05,10,09,20.70
2014,08,05,10,10,20.80
2014,08,05,10,11,20.90
2014,08,05,10,12,20.90
2014,08,05,10,13,21.00
2014,08,05,10,14,21.00
2014,08,05,10,15,21.00
2014,08,05,10,16,21.00
2014,08,05,10,17,21.00
2014,08,05,10,18,21.10
2014,08,05,10,19,21.20
2014,08,05,10,20,21.30
2014,08,05,10,21,21.40
2014,08,05,10,22,21.40
2014,08,05,10,23,21.40
2014,08,05,10,24,21.30
2014,08,05,10,25,21.30
2014,08,05,10,26,21.20
2014,08,05,10,27,21.20
2014,08,05,10,28,21.20
2014,08,05,10,29,21.20
2014,08,05,10,30,21.10
2014,08,05,10,31,21.10
2014,08,05,10,32,21.10
2014,08,05,10,33,21.20
2014,08,05,10,34,21.30
2014,08,05,10,35,21.40
2014,08,05,10,36,21.50
2014,08,05,10,37,21.50
2014,08,05,10,38,21.60
2014,08,05,10,39,21.60
2014,08,05,10,40,21.60
2014,08,05,10,41,21.60
2014,08,05,10,42,21.60
2014,08,05,10,43,21.60
2014,08,05,10,44,21.60
2014,08,05,10,45,21.70
2014,08,05,10,46,21.70
2014,08,05,10,47,21.70
2014,08,05,10,48,21.60
2014,08,05,10,49,21.60
2014,08,05,10,50,21.50
2014,08,05,10,51,21.50
2014,08,05,10,52,21.50
2014,08,05,10,53,21.50
2014,08,05,10,54,21.60
2014,08,05,10,55,21.60
2014,08,05,10,56,21.70
2014,08,05,10,57,21.70
2014,08,05,10,58,21.80
2014,08,05,10,59,21.80
2014,08,05,11,00,21.80
2014,08,05,11,01,21.80
2014,08,05,11,02,21.90
2014,08,05,11,03,22.00
2014,08,05,11,04,22.00
2014,08,05,11,05,22.10
2014,08,05,11,06,22.10
2014,08,05,11,07,22.10
2014,08,05,11,08,22.10
2014,08,05,11,09,22.20
2014,08,05,11,10,22.20
2014,08,05,11,11,22.20
2014,08,05,11,12,22.20
2014,08,05,11,13,22.30
2014,08,05,11,14,22.30
2014,08,05,11,15,22.30
2014,08,05,11,16,22.30
2014,08,05,11,17,22.20
2014,08,05,11,18,22.10
2014,08,05,11,19,22.10
2014,08,05,11,20,22.10
2014,08,05,11,21,22.10
2014,08,05,11,22,22.10
2014,08,05,11,23,22.00
2014,08,05,11,24,22.00
2014,08,05,11,25,22.00
2014,08,05,11,26,22.00
2014,08,05,11,27,22.10
2014,08,05,11,28,22.20
2014,08,05,11,29,22.30
2014,08,05,11,30,22.30
2014,08,05,11,31,22.40
2014,08,05,11,32,22.50
2014,08,05,11,33,22.60
2014,08,05,11,34,22.70
2014,08,05,11,35,22.70
2014,08,05,11,36,22.70
2014,08,05,11,37,22.80
2014,08,05,11,38,22.80
2014,08,05,11,39,22.80
2014,08,05,11,40,22.90
2014,08,05,11,41,22.90
2014,08,05,11,42,22.90
2014,08,05,11,43,22.90
2014,08,05,11,44,22.90
2014,08,05,11,45,22.90
2014,08,05,11,46,23.00
2014,08,05,11,47,23.00
2014,08,05,11,48,23.10
2014,08,05,11,49,23.10
2014,08,05,11,50,23.20
2014,08,05,11,51,23.30
2014,08,05,11,52,23.30
2014,08,05,11,53,23.20
2014,08,05,11,54,23.20
2014,08,05,11,55,23.20
2014,08,05,11,56,23.20
2014,08,05,11,57,23.20
2014,08,05,11,58,23.20
2014,08,05,11,59,23.30
2014,08,05,12,00,23.30
2014,08,05,12,01,23.40
2014,08,05,12,02,23.50
2014,08,05,12,03,23.60
2014,08,05,12,04,23.70
2014,08,05,12,05,23.70
2014,08,05,12,06,23.70
2014,08,05,12,07,23.70
2014,08,05,12,08,23.80
2014,08,05,12,09,23.80
2014,08,05,12,10,23.90
2014,08,05,12,11,24.00
2014,08,05,12,12,24.10
2014,08,05,12,13,24.20
2014,08,05,12,14,24.20
2014,08,05,12,15,24.30
2014,08,05,12,16,24.30
2014,08,05,12,17,24.30
2014,08,05,12,18,24.30
2014,08,05,12,19,24.10
2014,08,05,12,20,24.00
2014,08,05,12,21,24.00
2014,08,05,12,22,23.90
2014,08,05,12,23,23.90
2014,08,05,12,24,23.80
2014,08,05,12,25,23.70
2014,08,05,12,26,23.60
2014,08,05,12,27,23.60
2014,08,05,12,28,23.60
2014,08,05,12,29,23.60
2014,08,05,12,30,23.70
2014,08,05,12,31,23.70
2014,08,05,12,32,23.80
2014,08,05,12,33,23.90
2014,08,05,12,34,23.90
2014,08,05,12,35,23.90
2014,08,05,12,36,23.90
2014,08,05,12,37,23.90
2014,08,05,12,38,23.90
2014,08,05,12,39,23.90
2014,08,05,12,40,23.80
2014,08,05,12,41,23.80
2014,08,05,12,42,23.90
2014,08,05,12,43,23.90
2014,08,05,12,44,23.90
2014,08,05,12,45,24.00
2014,08,05,12,46,24.00
2014,08,05,12,47,24.10
2014,08,05,12,48,24.10
2014,08,05,12,49,24.10
2014,08,05,12,50,24.10
2014,08,05,12,51,24.10
2014,08,05,12,52,24.10
2014,08,05,12,53,24.10
2014,08,05,12,54,24.20
2014,08,05,12,55,24.20
2014,08,05,12,56,24.20
2014,08,05,12,57,24.20
2014,08,05,12,58,24.20
2014,08,05,12,59,24.20
2014,08,05,13,00,24.20
2014,08,05,13,01,24.20
2014,08,05,13,02,24.20
2014,08,05,13,03,24.20
2014,08,05,13,04,24.10
2014,08,05,13,05,24.10
2014,08,05,13,06,24.00
2014,08,05,13,07,24.00
2014,08,05,13,08,24.10
2014,08,05,13,09,24.10
2014,08,05,13,10,24.20
2014,08,05,13,11,24.30
2014,08,05,13,12,24.30
2014,08,05,13,13,24.30
2014,08,05,13,14,24.40
2014,08,05,13,15,24.50
2014,08,05,13,16,24.60
2014,08,05,13,17,24.70
2014,08,05,13,18,24.80
2014,08,05,13,19,24.80
2014,08,05,13,20,24.90
2014,08,05,13,21,24.80
2014,08,05,13,22,24.80
2014,08,05,13,23,24.80
2014,08,05,13,24,24.80
2014,08,05,13,25,24.80
2014,08,05,13,26,24.80
2014,08,05,13,27,24.80
2014,08,05,13,28,24.80
2014,08,05,13,29,24.80
2014,08,05,13,30,24.90
2014,08,05,13,31,24.90
2014,08,05,13,32,24.90
2014,08,05,13,33,25.00
2014,08,05,13,34,24.90
2014,08,05,13,35,25.00
2014,08,05,13,36,25.00
2014,08,05,13,37,25.00
2014,08,05,13,38,24.90
2014,08,05,13,39,24.80
2014,08,05,13,40,24.80
2014,08,05,13,41,24.80
2014,08,05,13,42,24.80
2014,08,05,13,43,24.80
2014,08,05,13,44,24.90
2014,08,05,13,45,24.90
2014,08,05,13,46,25.00
2014,08,05,13,47,25.10
2014,08,05,13,48,25.20
2014,08,05,13,49,25.30
2014,08,05,13,50,25.40
2014,08,05,13,51,25.50
2014,08,05,13,52,25.50
2014,08,05,13,53,25.60
2014,08,05,13,54,25.80
2014,08,05,13,55,25.80
2014,08,05,13,56,25.80
2014,08,05,13,57,25.70
2014,08,05,13,58,25.70
2014,08,05,13,59,25.60
2014,08,05,14,00,25.60
2014,08,05,14,01,25.60
2014,08,05,14,02,25.60
2014,08,05,14,03,25.70
2014,08,05,14,04,25.70
2014,08,05,14,05,25.80
2014,08,05,14,06,25.80
2014,08,05,14,07,25.80
2014,08,05,14,08,25.80
2014,08,05,14,09,25.80
2014,08,05,14,10,25.80
2014,08,05,14,11,25.70
2014,08,05,14,12,25.70
2014,08,05,14,13,25.70
2014,08,05,14,14,25.70
2014,08,05,14,15,25.70
2014,08,05,14,16,25.70
2014,08,05,14,17,25.70
2014,08,05,14,18,25.60
2014,08,05,14,19,25.50
2014,08,05,14,20,25.40
2014,08,05,14,21,25.40
2014,08,05,14,22,25.30
2014,08,05,14,23,25.20
2014,08,05,14,24,25.20
2014,08,05,14,25,25.10
2014,08,05,14,26,25.10
2014,08,05,14,27,25.10
2014,08,05,14,28,25.10
2014,08,05,14,29,25.10
2014,08,05,14,30,25.10
2014,08,05,14,31,25.10
2014,08,05,14,32,25.20
2014,08,05,14,33,25.20
2014,08,05,14,34,25.30
2014,08,05,14,35,25.30
2014,08,05,14,36,25.20
2014,08,05,14,37,25.20
2014,08,05,14,38,25.20
2014,08,05,14,39,25.10
2014,08,05,14,40,25.10
2014,08,05,14,41,25.10
2014,08,05,14,42,25.00
2014,08,05,14,43,24.90
2014,08,05,14,44,24.90
2014,08,05,14,45,24.90
2014,08,05,14,46,24.80
2014,08,05,14,47,24.70
2014,08,05,14,48,24.60
2014,08,05,14,49,24.60
2014,08,05,14,50,24.50
2014,08,05,14,51,24.40
2014,08,05,14,52,24.50
2014,08,05,14,53,24.50
2014,08,05,14,54,24.50
2014,08,05,14,55,24.50
2014,08,05,14,56,24.50
2014,08,05,14,57,24.50
2014,08,05,14,58,24.50
2014,08,05,14,59,24.60
2014,08,05,15,00,24.70
2014,08,05,15,01,24.80
2014,08,05,15,02,24.90
2014,08,05,15,03,25.00
2014,08,05,15,04,25.10
2014,08,05,15,05,25.10
2014,08,05,15,06,25.10
2014,08,05,15,07,25.10
2014,08,05,15,08,25.10
2014,08,05,15,09,25.10
2014,08,05,15,10,25.10
2014,08,05,15,11,25.10
2014,08,05,15,12,25.10
2014,08,05,15,13,25.10
2014,08,05,15,14,25.10
2014,08,05,15,15,25.10
2014,08,05,15,16,25.20
2014,08,05,15,17,25.30
2014,08,05,15,18,25.40
2014,08,05,15,19,25.50
2014,08,05,15,20,25.60
2014,08,05,15,21,25.70
2014,08,05,15,22,25.80
2014,08,05,15,23,25.90
2014,08,05,15,24,25.90
2014,08,05,15,25,26.00
2014,08,05,15,26,25.90
2014,08,05,15,27,25.80
2014,08,05,15,28,25.60
2014,08,05,15,29,25.30
2014,08,05,15,30,25.20
2014,08,05,15,31,25.10
2014,08,05,15,32,25.10
2014,08,05,15,33,25.00
2014,08,05,15,34,25.00
2014,08,05,15,35,24.90
2014,08,05,15,36,24.90
2014,08,05,15,37,24.80
2014,08,05,15,38,24.80
2014,08,05,15,39,24.80
2014,08,05,15,40,24.90
2014,08,05,15,41,24.90
2014,08,05,15,42,25.00
2014,08,05,15,43,25.00
2014,08,05,15,44,25.10
2014,08,05,15,45,25.10
2014,08,05,15,46,25.10
2014,08,05,15,47,25.10
2014,08,05,15,48,25.10
2014,08,05,15,49,25.00
2014,08,05,15,50,25.00
2014,08,05,15,51,24.80
2014,08,05,15,52,24.80
2014,08,05,15,53,24.70
2014,08,05,15,54,24.60
2014,08,05,15,55,24.60
2014,08,05,15,56,24.60
2014,08,05,15,57,24.70
2014,08,05,15,58,24.70
2014,08,05,15,59,24.60
2014,08,05,16,00,24.60
2014,08,05,16,01,24.60
2014,08,05,16,02,24.60
2014,08,05,16,03,24.60
2014,08,05,16,04,24.60
2014,08,05,16,05,24.70
2014,08,05,16,06,24.70
2014,08,05,16,07,24.60
2014,08,05,16,08,24.50
2014,08,05,16,09,24.40
2014,08,05,16,10,24.30
2014,08,05,16,11,24.30
2014,08,05,16,12,24.20
2014,08,05,16,13,24.20
2014,08,05,16,14,24.10
2014,08,05,16,15,23.90
2014,08,05,16,16,23.90
2014,08,05,16,17,23.80
2014,08,05,16,18,23.70
2014,08,05,16,19,23.70
2014,08,05,16,20,23.60
2014,08,05,16,21,23.60
2014,08,05,16,22,23.50
2014,08,05,16,23,23.40
2014,08,05,16,24,23.40
2014,08,05,16,25,23.40
2014,08,05,16,26,23.40
2014,08,05,16,27,23.40
2014,08,05,16,28,23.40
2014,08,05,16,29,23.40
2014,08,05,16,30,23.40
2014,08,05,16,31,23.50
2014,08,05,16,32,23.50
2014,08,05,16,33,23.60
2014,08,05,16,34,23.60
2014,08,05,16,35,23.60
2014,08,05,16,36,23.60
2014,08,05,16,37,23.50
2014,08,05,16,38,23.50
2014,08,05,16,39,23.30
2014,08,05,16,40,23.20
2014,08,05,16,41,23.20
2014,08,05,16,42,23.20
2014,08,05,16,43,23.20
2014,08,05,16,44,23.20
2014,08,05,16,45,23.20
2014,08,05,16,46,23.20
2014,08,05,16,47,23.10
2014,08,05,16,48,23.10
2014,08,05,16,49,23.00
2014,08,05,16,50,22.90
2014,08,05,16,51,22.90
2014,08,05,16,52,22.90
2014,08,05,16,53,22.90
2014,08,05,16,54,23.00
2014,08,05,16,55,23.00
2014,08,05,16,56,23.00
2014,08,05,16,57,23.00
2014,08,05,16,58,23.10
2014,08,05,16,59,23.10
2014,08,05,17,00,23.20
2014,08,05,17,01,23.20
2014,08,05,17,02,23.10
2014,08,05,17,03,23.00
2014,08,05,17,04,22.90
2014,08,05,17,05,22.80
2014,08,05,17,06,22.70
2014,08,05,17,07,22.70
2014,08,05,17,08,22.70
2014,08,05,17,09,22.60
2014,08,05,17,10,22.60
2014,08,05,17,11,22.60
2014,08,05,17,12,22.60
2014,08,05,17,13,22.50
2014,08,05,17,14,22.50
2014,08,05,17,15,22.40
2014,08,05,17,16,22.40
2014,08,05,17,17,22.30
2014,08,05,17,18,22.20
2014,08,05,17,19,22.20